Wind_Speed
33 35 35 36 39 41 43 44 45 45 47 49 49 50 50 50 50 49 46 43 40 38 38 39 38 37 36 34 32 31 31 31 29 28 28 29 30 29 28 28 28 30 31 32
36 36 38 41 42 44 45 47 47 48 48 51 52 53 52 52 50 49 48 46 42 40 40 40 39 37 37 36 33 32 33 31 30 29 29 29 30 30 30 30 31 32 32 33
38 39 41 43 44 46 47 49 50 51 51 52 54 55 53 53 53 51 49 47 45 44 43 42 40 38 37 37 35 34 34 33 31 30 29 29 29 30 31 32 33 33 34 35
40 41 43 45 47 49 50 51 53 55 56 55 56 58 53 54 54 53 51 49 48 47 47 45 41 38 38 38 37 35 35 34 32 30 29 29 29 30 31 32 34 34 36 37
41 43 45 47 48 50 52 53 55 56 58 59 58 61 56 52 53 53 52 51 50 49 48 46 42 39 39 39 37 36 36 34 33 31 30 29 29 30 31 32 34 35 37 39
42 44 46 47 48 50 51 52 54 56 59 62 60 63 60 54 50 51 52 52 51 50 49 47 43 40 40 39 38 37 35 34 32 31 31 30 29 30 31 32 34 36 38 40
42 43 44 45 45 46 48 49 51 55 58 62 60 62 62 56 52 49 49 51 51 50 49 47 44 41 41 40 38 37 35 34 32 32 31 31 30 30 31 33 35 37 39 41
41 39 39 39 40 42 44 46 48 51 54 55 56 60 59 56 54 50 48 49 51 50 49 46 44 42 42 41 39 38 36 34 33 32 32 31 31 31 33 34 36 38 40 41
36 35 35 35 35 37 38 40 40 44 48 51 53 52 52 50 50 48 46 47 49 49 48 45 43 43 43 41 39 38 36 35 34 33 33 32 32 32 34 36 37 39 41 41
31 31 29 30 30 29 32 33 36 39 44 47 47 44 40 38 40 42 43 46 48 48 47 43 42 43 42 41 39 38 37 35 34 33 33 33 33 33 35 37 38 39 40 41
25 26 24 24 25 27 28 31 34 38 41 42 42 34 28 28 31 35 40 44 46 46 43 40 40 41 41 40 39 38 36 35 34 33 33 33 33 34 35 36 38 39 40 42
22 24 23 22 23 25 25 26 30 34 36 37 37 25 21 19 23 31 37 41 43 42 39 39 39 40 40 39 38 37 36 34 33 33 33 33 33 33 34 36 37 39 40 42
20 22 23 22 21 23 23 21 24 27 31 32 31 15 15 17 21 29 35 39 39 38 37 38 39 40 39 38 37 36 35 34 33 32 32 32 32 33 34 36 37 39 41 43
18 19 21 22 21 22 22 20 21 24 26 23 17 7 13 18 24 30 35 37 36 36 37 38 38 38 37 36 36 35 34 32 31 30 31 31 32 32 34 35 37 40 42 45
17 17 18 18 19 20 19 18 18 18 16 11 5 9 18 23 26 30 34 36 35 35 36 36 35 35 34 33 32 31 30 29 29 29 29 30 31 32 33 36 39 41 45 48
15 14 15 15 15 16 15 13 9 7 4 1 8 17 21 25 27 29 32 33 34 33 33 32 31 31 30 29 28 27 26 26 27 27 28 28 29 31 34 37 41 44 47 50
10 11 13 15 14 15 15 10 6 9 12 15 19 22 23 25 26 28 30 30 30 29 28 27 27 27 26 25 24 24 24 24 24 25 26 27 30 33 36 39 43 46 48 50
7 9 12 14 15 17 14 10 11 14 17 20 23 24 25 25 26 27 27 26 25 25 24 23 22 22 21 21 20 20 20 21 22 24 26 29 32 35 38 41 44 47 49 52
4 7 9 12 14 16 15 13 14 16 19 21 22 23 23 23 23 23 22 22 21 20 20 19 18 18 17 17 17 18 19 21 23 25 28 31 34 37 40 43 46 48 50 53
2 4 7 9 11 12 13 14 14 15 16 17 18 19 19 19 18 18 18 18 18 17 16 15 14 15 15 16 17 18 20 22 24 27 30 33 36 39 42 44 46 49 52 54
2 0 2 4 7 8 9 9 10 10 12 13 14 14 14 15 15 15 14 14 14 13 13 13 14 15 16 17 18 20 22 24 27 29 32 35 37 40 42 44 47 50 52 54
7 5 3 1 1 3 4 5 5 7 8 9 9 10 11 11 11 11 11 11 11 11 12 14 15 16 17 18 20 22 24 26 28 31 33 36 38 40 42 45 48 50 51 52
11 9 8 6 4 2 1 2 3 4 5 5 6 7 9 10 10 10 10 11 11 12 13 14 15 16 17 19 21 23 25 27 29 32 34 36 38 40 43 46 47 48 49 51
14 13 11 10 8 7 5 4 3 4 5 5 6 7 8 9 10 11 11 11 12 12 13 13 14 16 18 20 22 24 26 28 30 32 34 36 38 41 43 44 45 47 50 53
15 14 14 13 11 9 7 5 4 4 5 5 5 6 6 8 9 10 10 11 11 12 13 14 16 17 18 20 23 25 27 29 30 32 35 37 39 41 42 43 45 48 52 57
17 16 15 14 12 10 8 6 6 6 5 6 6 5 6 7 8 9 10 10 11 12 14 15 16 18 20 22 24 26 28 30 31 33 35 37 38 40 41 43 47 51 56 62
Wind_Direction
268 270 274 274 273 273 273 271 269 265 260 255 252 251 248 245 245 246 246 246 247 247 247 247 247 245 244 245 248 247 246 247 247 247 248 247 247 249 253 257 262 265 269 273
271 273 275 274 274 274 273 272 270 268 264 259 254 251 249 247 245 245 245 244 244 246 248 248 246 243 242 243 246 247 247 247 247 247 248 248 250 252 255 258 262 266 270 275
274 276 276 276 276 275 273 272 269 267 264 262 259 253 249 247 246 244 244 244 243 243 245 246 245 243 240 241 244 246 247 247 247 247 249 251 253 255 257 260 264 267 272 276
275 277 277 277 277 275 273 271 268 266 264 261 260 258 248 246 246 245 244 243 243 242 243 244 243 240 239 239 241 244 246 246 246 248 249 252 255 256 259 262 265 268 272 277
278 278 279 280 279 276 275 271 269 267 265 263 260 260 254 247 244 245 244 243 242 242 243 243 241 237 237 238 239 243 245 246 246 248 250 253 256 258 260 263 266 269 274 278
280 281 282 281 279 277 274 271 268 266 264 262 260 259 256 250 245 243 244 243 241 241 241 241 238 234 235 236 238 241 244 245 247 249 252 254 257 260 262 265 267 271 275 278
282 283 283 281 278 276 273 271 268 265 263 263 261 258 256 252 247 242 240 240 239 239 239 238 235 232 232 234 236 239 242 244 246 249 252 255 258 261 264 266 269 272 276 280
287 288 287 284 280 275 271 268 266 266 266 265 262 259 255 251 248 241 237 235 235 235 236 235 231 227 227 230 234 237 240 243 246 249 253 256 259 262 265 268 271 275 278 283
289 290 290 288 284 279 276 272 269 264 264 265 264 262 256 250 248 241 232 229 230 230 231 229 225 223 223 226 231 235 239 243 246 250 254 257 260 263 267 270 273 277 281 285
291 293 294 290 288 285 278 273 266 262 262 264 267 265 261 252 246 237 227 222 224 225 225 223 220 219 219 223 228 234 239 243 246 251 255 258 261 265 268 272 276 280 284 288
295 297 298 294 292 288 278 273 269 265 264 266 270 269 262 252 237 225 217 215 217 219 219 216 214 214 217 222 227 233 239 243 247 251 255 259 263 266 271 275 279 283 287 290
298 300 301 300 297 292 287 280 272 268 269 269 269 265 249 240 222 208 204 206 209 210 209 207 207 210 215 221 227 233 239 243 247 251 256 260 264 269 273 278 282 286 288 291
301 304 308 310 309 303 298 291 282 276 271 269 269 262 229 215 202 194 191 195 199 199 199 200 203 208 214 221 227 233 238 242 246 251 256 261 266 271 276 281 285 287 290 293
304 309 316 319 318 311 303 293 285 278 276 278 274 246 192 186 183 179 180 183 187 190 194 198 203 208 215 221 226 231 236 241 246 251 257 263 268 274 279 283 286 289 292 295
308 319 328 333 331 322 312 299 285 278 279 281 264 173 162 168 172 171 173 177 182 187 192 196 202 209 215 220 225 230 235 241 247 253 259 265 272 277 282 285 288 292 295 297
315 330 343 354 352 348 344 335 320 304 291 169 147 147 152 159 163 167 170 176 182 186 190 195 201 207 212 217 222 228 234 241 248 255 263 270 276 280 284 288 291 294 296 298
328 347 2 12 11 11 13 16 58 98 116 127 134 145 151 154 159 164 168 172 177 182 185 191 197 203 209 215 221 228 236 245 254 262 269 275 279 283 288 291 294 295 297 300
346 10 21 26 25 27 39 60 88 110 122 128 133 141 146 148 152 158 163 168 173 178 182 188 196 204 212 219 227 237 246 255 262 268 274 279 283 288 291 293 295 297 300 302
11 27 33 37 40 49 62 80 93 108 121 128 133 139 144 145 148 153 159 166 173 178 184 192 201 210 219 228 238 246 254 262 268 274 279 284 287 290 293 295 297 300 302 304
36 39 45 50 53 60 72 81 96 108 117 127 136 140 145 149 153 156 163 170 177 183 190 199 209 220 229 238 247 255 262 269 275 279 283 287 290 292 295 297 299 302 304 305
226 111 67 64 64 71 79 85 98 110 123 132 138 144 151 158 162 166 172 179 186 197 208 219 228 236 243 250 257 264 269 275 279 283 287 290 292 295 297 300 302 303 304 306
230 233 231 211 75 83 94 97 107 116 133 148 157 166 173 179 183 188 195 201 209 218 227 235 242 248 253 259 264 270 274 279 283 286 289 292 295 298 300 302 303 305 306 308
230 234 238 240 246 248 212 169 161 163 164 170 180 189 197 204 210 215 220 225 231 237 242 246 250 255 260 265 271 275 279 283 287 290 293 296 299 301 302 303 305 307 309 310
226 229 231 236 239 242 241 233 213 198 194 196 200 206 211 216 220 224 228 232 237 242 246 250 255 261 267 273 276 280 284 288 292 295 297 299 301 302 304 306 308 309 310 311
222 224 229 232 235 238 240 236 222 211 206 205 205 208 213 220 223 227 231 236 242 248 254 260 266 270 274 279 283 286 290 293 296 298 300 301 303 305 307 309 310 311 311 312
221 224 229 232 233 234 233 235 230 226 221 219 220 226 234 238 238 237 241 247 253 258 263 268 273 278 282 286 289 291 294 296 299 301 302 304 306 308 310 311 311 312 313 315
Height
5683 5686 5687 5686 5685 5685 5685 5685 5686 5687 5688 5690 5693 5696 5701 5705 5710 5714 5719 5723 5726 5729 5732 5734 5738 5742 5746 5749 5750 5751 5753 5754 5756 5758 5759 5759 5760 5761 5763 5764 5765 5764 5764 5763
5675 5677 5677 5675 5675 5675 5674 5674 5675 5676 5676 5677 5680 5683 5689 5694 5699 5705 5709 5713 5718 5721 5723 5726 5730 5734 5738 5741 5743 5745 5746 5748 5750 5751 5753 5753 5754 5756 5757 5758 5758 5758 5757 5756
5665 5668 5666 5665 5665 5663 5663 5662 5662 5662 5662 5663 5665 5670 5679 5683 5687 5693 5699 5704 5708 5711 5713 5717 5721 5726 5730 5733 5736 5738 5740 5741 5743 5745 5746 5747 5748 5749 5750 5751 5751 5751 5750 5749
5656 5657 5655 5654 5653 5650 5650 5649 5647 5647 5647 5650 5652 5653 5666 5671 5675 5682 5689 5693 5697 5700 5703 5707 5712 5718 5722 5725 5728 5730 5733 5735 5737 5738 5740 5741 5742 5742 5743 5743 5743 5743 5743 5741
5647 5646 5643 5643 5641 5636 5636 5634 5633 5632 5632 5635 5639 5637 5648 5659 5665 5671 5676 5681 5685 5690 5694 5698 5704 5710 5713 5716 5720 5723 5725 5728 5730 5732 5733 5734 5735 5735 5736 5736 5736 5736 5735 5733
5637 5634 5632 5631 5627 5623 5620 5619 5617 5616 5615 5618 5625 5621 5630 5645 5654 5659 5663 5668 5674 5679 5684 5689 5695 5700 5705 5709 5712 5716 5718 5720 5723 5724 5726 5727 5727 5728 5728 5728 5728 5728 5727 5725
5626 5624 5620 5617 5614 5610 5607 5606 5603 5600 5599 5602 5607 5606 5616 5630 5638 5644 5649 5655 5661 5667 5673 5679 5686 5692 5697 5701 5705 5708 5711 5713 5715 5717 5719 5719 5720 5720 5721 5721 5721 5720 5718 5716
5614 5614 5610 5606 5602 5598 5595 5593 5592 5589 5587 5588 5589 5590 5603 5613 5618 5626 5634 5640 5646 5654 5662 5669 5676 5683 5688 5693 5697 5701 5703 5706 5708 5710 5712 5712 5713 5713 5713 5713 5712 5711 5709 5707
5604 5603 5600 5595 5591 5588 5585 5583 5583 5579 5576 5573 5574 5579 5587 5596 5600 5608 5617 5625 5634 5642 5650 5658 5666 5673 5679 5685 5689 5693 5696 5699 5701 5703 5704 5705 5705 5705 5705 5705 5704 5703 5701 5698
5595 5593 5591 5586 5583 5580 5577 5575 5572 5569 5566 5563 5564 5568 5574 5582 5584 5592 5602 5612 5621 5630 5639 5648 5657 5665 5671 5677 5682 5686 5689 5692 5694 5696 5697 5698 5698 5698 5697 5697 5696 5694 5692 5689
5588 5586 5585 5581 5577 5574 5570 5567 5564 5562 5560 5558 5555 5560 5567 5569 5573 5581 5591 5601 5610 5621 5631 5640 5649 5657 5664 5670 5675 5679 5682 5685 5687 5688 5689 5690 5690 5690 5690 5689 5688 5686 5683 5680
5584 5582 5579 5576 5572 5566 5562 5560 5557 5555 5553 5551 5549 5554 5559 5562 5565 5572 5582 5592 5603 5613 5624 5634 5643 5651 5657 5663 5668 5672 5676 5678 5680 5681 5682 5683 5682 5682 5682 5681 5679 5677 5674 5671
5581 5578 5574 5571 5568 5562 5557 5554 5551 5549 5547 5544 5544 5549 5552 5556 5560 5566 5576 5587 5598 5609 5619 5629 5637 5644 5651 5657 5662 5666 5669 5671 5673 5674 5675 5675 5675 5675 5674 5673 5671 5668 5665 5661
5578 5575 5572 5567 5561 5556 5552 5550 5547 5544 5541 5541 5541 5544 5549 5553 5559 5565 5574 5585 5597 5607 5616 5624 5632 5639 5646 5651 5656 5660 5663 5665 5666 5667 5668 5668 5668 5668 5667 5665 5663 5659 5656 5651
5575 5573 5568 5563 5558 5553 5549 5546 5543 5541 5541 5540 5542 5544 5548 5554 5560 5567 5576 5587 5597 5605 5613 5621 5629 5636 5642 5647 5651 5654 5657 5659 5660 5661 5661 5662 5662 5661 5659 5657 5654 5650 5646 5641
5574 5571 5567 5562 5557 5552 5548 5545 5542 5540 5541 5542 5543 5547 5551 5557 5563 5571 5579 5588 5597 5605 5612 5620 5627 5633 5638 5642 5646 5649 5651 5653 5654 5655 5655 5655 5655 5653 5651 5648 5645 5641 5636 5630
5573 5570 5567 5563 5559 5555 5551 5548 5545 5544 5544 5545 5548 5553 5556 5562 5568 5575 5582 5590 5597 5604 5611 5618 5624 5629 5634 5638 5641 5643 5645 5647 5648 5649 5649 5649 5647 5645 5643 5639 5635 5630 5625 5619
5573 5570 5567 5565 5563 5559 5558 5553 5552 5551 5551 5552 5555 5559 5563 5568 5574 5580 5587 5593 5599 5606 5611 5617 5622 5627 5631 5634 5636 5638 5640 5642 5643 5643 5642 5641 5639 5637 5634 5630 5625 5620 5614 5608
5574 5572 5570 5568 5566 5564 5563 5560 5559 5559 5560 5562 5564 5567 5571 5575 5581 5586 5591 5597 5602 5607 5612 5616 5620 5624 5627 5630 5632 5634 5636 5636 5637 5636 5635 5634 5631 5628 5624 5620 5615 5610 5603 5597
5575 5574 5573 5572 5570 5569 5570 5568 5567 5569 5569 5571 5573 5575 5579 5582 5586 5591 5595 5599 5603 5607 5611 5615 5618 5621 5624 5626 5628 5629 5630 5630 5630 5629 5628 5625 5623 5619 5615 5610 5605 5599 5592 5585
5575 5575 5575 5574 5574 5574 5574 5574 5574 5576 5577 5577 5579 5581 5584 5587 5590 5594 5596 5600 5603 5607 5610 5613 5616 5618 5620 5622 5623 5624 5624 5624 5623 5622 5620 5617 5614 5610 5605 5600 5594 5588 5581 5574
5575 5575 5576 5576 5576 5579 5577 5577 5578 5579 5579 5581 5583 5585 5587 5589 5592 5594 5597 5600 5603 5605 5608 5610 5612 5614 5616 5617 5618 5618 5618 5617 5616 5614 5611 5608 5605 5600 5595 5590 5584 5577 5570 5563
5573 5575 5576 5577 5579 5578 5577 5578 5579 5580 5581 5582 5584 5586 5588 5590 5592 5594 5596 5598 5601 5603 5605 5607 5608 5610 5611 5612 5612 5612 5611 5610 5608 5606 5603 5600 5595 5591 5585 5579 5573 5566 5559 5552
5571 5573 5574 5575 5576 5577 5577 5578 5579 5580 5581 5583 5584 5586 5587 5589 5591 5592 5594 5596 5598 5600 5602 5604 5605 5606 5606 5607 5606 5606 5604 5603 5601 5598 5595 5591 5586 5581 5575 5569 5562 5555 5548 5540
5569 5570 5572 5573 5575 5576 5577 5578 5579 5580 5581 5582 5584 5585 5587 5588 5590 5591 5593 5595 5596 5598 5599 5600 5601 5602 5602 5601 5601 5599 5598 5596 5593 5590 5586 5581 5577 5571 5565 5559 5552 5545 5536 5527
5566 5568 5570 5572 5574 5576 5577 5577 5578 5579 5581 5582 5583 5585 5586 5587 5588 5590 5591 5593 5594 5595 5596 5597 5597 5597 5597 5596 5594 5593 5591 5588 5585 5581 5577 5572 5567 5562 5556 5549 5541 5532 5524 5513